Location: Asheville, NC
(35.6000°N, 82.5500°W)
Time: 04:17:51
(UTC-05:00)

JUGNU - Pass Details

Date: 06 January 2018
Orbit: 837 x 864 km, 20.0° (Epoch: 18 January)

Event Time Altitude Azimuth Distance (km) Brightness Sun altitude
Rises 19:11:40 0° 240° (WSW) 3,419 ? -19.7°
Reaches altitude 10° 19:15:07 10° 221° (SW) 2,483 ? -20.4°
Maximum altitude 19:18:51 17° 182° (S) 2,027 ? -21.1°
Enters shadow 19:22:24 11° 144° (SE) 2,444 ? -21.8°
